Regional Weather Roundup
Issued by NWS

Home | Current Version | Previous Version | Graphics & Text | Print | Product List | Glossary On
Versions: 1 2 3 4 5 6 7 8 9 10 11 12 13 14 15 16 17 18 19 20 21 22 23 24 25 26 27 28 29 30 31 32 33 34 35 36 37 38 39 40 41 42 43 44 45 46 47 48 49 50
754
ASUS43 KIND 142009
RWRIN

WEATHER ROUNDUP FOR INDIANA
NATIONAL WEATHER SERVICE INDIANAPOLIS IN
300 PM EST THU DEC 14 2017

NOTE: "FAIR" INDICATES FEW OR NO CLOUDS BELOW 12,000 FEET WITH NO
SIGNIFICANT WEATHER AND/OR OBSTRUCTIONS TO VISIBILITY.

* - STATION DOES NOT REPORT WEATHER SUCH AS PRECIPITATION OR FOG.

+ - STATION NOT QUALITY CONTROLLED BY THE NATIONAL WEATHER SERVICE.
    USE DATA WITH CAUTION...ESPECIALLY DEWPOINT AND RELATIVE
    HUMIDITY OBSERVATIONS.

INZ001>003-010>013-019-020-142100-
NORTHWEST INDIANA

CITY           SKY/WX    TMP DP  RH WIND       PRES   REMARKS
GARY /AIRPORT/ PTSUNNY   30  14  51 W3        30.05S
KNOX *+        CLOUDY    25  14  63 CALM      30.05S
LA PORTE +     CLOUDY    22  16  78 S5        30.04F WCI  16
MICHIGAN CITY+ LGT SNOW  23  18  80 S8        30.04F WCI  14
MONTICELLO +   PTSUNNY   27  12  52 CALM      30.04S
RENSSELAER +   CLOUDY    30  14  51 CALM      30.05S
VALPARAISO     PTSUNNY   28  18  66 S6        30.04S WCI  22

$$

LMZ046-743>745-142100-
SOUTHERN LAKE MICHIGAN

STATION/POSITION TIME  TEMP    WIND        PRES    WAVE
                       AIR SEA DIR/SP/G            HT
                 (UTC) (F)     (DEG/KT/KT) (MB)    (FT)
BURNS HARBOR     1940   28     290/ 10/ 12 1017.3F
MICHIGAN CITY    1940   22     140/  9/ 10   N/A

$$

INZ004-005-014>016-021>024-142100-
NORTH CENTRAL INDIANA

CITY           SKY/WX    TMP DP  RH WIND       PRES   REMARKS
ELKHART        MOSUNNY   21   9  58 CALM      30.03F
GOSHEN         CLOUDY    20  10  65 SW5       30.03F WCI  13
LOGANSPORT +   PTSUNNY   28  14  54 NE5       30.05S WCI  23
PERU/GRISSOM   CLOUDY    27  13  55 CALM      30.03S
ROCHESTER +    CLOUDY    27  12  54 CALM      30.05S
SOUTH BEND     CLOUDY    22  14  71 SW6       30.04F WCI  14
WARSAW +       CLOUDY    23   9  54 CALM      30.04S

$$

INZ006>009-017-018-025>027-142100-
NORTHEAST INDIANA

CITY           SKY/WX    TMP DP  RH WIND       PRES   REMARKS
AUBURN +       MOSUNNY   27   9  46 CALM      30.03F
FORT WAYNE     CLOUDY    23   9  55 S3        30.04S
HUNTINGTON +   PTSUNNY   24   8  51 CALM      30.03F
KENDALLVILLE + SUNNY     22   9  55 S3        30.03S

$$

INZ028-029-035-036-043>045-051>053-142100-
WEST CENTRAL INDIANA

CITY           SKY/WX    TMP DP  RH WIND       PRES   REMARKS
CRAWFORDSVL +  MOSUNNY   29  12  50 NE6       30.04S WCI  23
GREENCASTLE +  CLOUDY    30  10  43 NE6       30.04S WCI  24
LAFAYETTE      CLOUDY    30  13  49 CALM      30.04S
TERRE HAUTE    CLOUDY    34  14  43 NE3       30.05S

$$

INZ030>032-037>040-046>048-054>057-064-065-142100-
CENTRAL INDIANA

CITY           SKY/WX    TMP DP  RH WIND       PRES   REMARKS
COLUMBUS       SUNNY     28  12  50 NE5       30.05F WCI  23
FRANKFORT +    CLOUDY    32  13  46 CALM      30.04F
GREENWOOD *+   CLOUDY    32  14  48 CALM      30.03F
INDIANAPOLIS   CLOUDY    30   9  41 NE3       30.03F
-EAGLE CREEK   CLOUDY    31  10  41 E9        30.02F WCI  23
KOKOMO +       CLOUDY    28  14  55 N3        30.04F
MARION +       CLOUDY    27  11  50 E6        30.04R WCI  21
MT COMFORT *+  CLOUDY    28  16  59 NE6       30.03S WCI  22
SHELBYVILLE    CLOUDY    29  14  53 E5        30.03F WCI  24
ZIONSVILLE +   MOSUNNY   29  13  51 NE6       30.03S WCI  22

$$

INZ033-034-041-042-049-050-058-059-142100-
EAST CENTRAL INDIANA

CITY           SKY/WX    TMP DP  RH WIND       PRES   REMARKS
MUNCIE         CLOUDY    29  10  45 NE8       30.02F WCI  21
RICHMOND +     MOSUNNY   27  16  63 E3        30.01F

$$

INZ060-061-067>069-081>083-085>088-142100-
SOUTHWEST INDIANA

CITY           SKY/WX    TMP DP  RH WIND       PRES   REMARKS
EVANSVILLE     CLOUDY    33  21  61 NW6       30.08R WCI  28
HUNTINGBURG +  CLOUDY    33  21  61 N5        30.05R WCI  29
WASHINGTON +   CLOUDY    32  18  55 N9        30.05S WCI  24

$$

INZ062-063-066-070>080-084-089>092-142100-
SOUTH CENTRAL AND SOUTHEAST INDIANA

CITY           SKY/WX    TMP DP  RH WIND       PRES   REMARKS
BEDFORD +      CLOUDY    34  14  44 NW5       30.02F WCI  30
BLOOMINGTON    MOSUNNY   32  12  43 CALM      30.02F
MADISON *+     MOSUNNY   32  16  51 NW6       30.03S WCI  26
NORTH VERNON + MOSUNNY   28  14  54 N6        30.04S WCI  22
SEYMOUR +      CLOUDY    34  16  47 NE7       30.05S WCI  28

$$





USA.gov is the U.S. government's official web portal to all federal, state and local government web resources and services.